Location: Unspecified
(43.4354°N, 0.0000°E)
Time: 02:26:15
(UTC+00:00)

SEEDS - Pass Details

Date: 09 August 2020
Orbit: 584 x 604 km, 97.5° (Epoch: 22 September)

Event Time Altitude Azimuth Distance (km) Brightness Sun altitude
Rises 04:03:04 0° 35° (NE) 2,867 ? -9.8°
Reaches altitude 10° 04:06:53 10° 71° (ENE) 1,953 ? -9.2°
Maximum altitude 04:08:11 11° 89° (E) 1,870 ? -9.0°
Drops below altitude 10° 04:09:29 10° 107° (ESE) 1,946 ? -8.8°
Sets 04:13:15 0° 142° (SE) 2,836 ? -8.2°
